| time (UTC) | temp F | wind direction | speed knots | gust knots | rain 1hr in | rain 24hr in | rain mn in | humidity % | barometer mb |
| 20260906080036 | 65 | 30 | 4.3 | 7.8 | 0.00 | 0.24 | 0.00 | 86 | 1016.1 |
| 20260906074536 | 65 | 5 | 6.1 | 11.3 | 0.00 | 0.24 | 0.00 | 86 | 1016.1 |
| 20260906073036 | 66 | 12 | 5.2 | 8.7 | 0.00 | 0.24 | 0.00 | 86 | 1016.1 |
| 20260906071532 | 66 | 22 | 4.3 | 7.8 | 0.00 | 0.24 | 0.00 | 87 | 1016.1 |
| 20260906070035 | 66 | 64 | 4.3 | 9.6 | 0.00 | 0.24 | 0.00 | 87 | 1016.3 |
| 20260906064537 | 66 | 349 | 2.6 | 8.7 | 0.00 | 0.24 | 0.00 | 88 | 1016.3 |
| 20260906063036 | 67 | 17 | 4.3 | 9.6 | 0.00 | 0.24 | 0.00 | 88 | 1016.2 |
| 20260906061534 | 67 | 5 | 5.2 | 8.7 | 0.00 | 0.24 | 0.00 | 90 | 1016.1 |
| 20260906060035 | 68 | 26 | 6.1 | 10.4 | 0.00 | 0.24 | 0.00 | 91 | 1016.2 |
| 20260906054538 | 68 | 21 | 5.2 | 10.4 | 0.00 | 0.24 | 0.00 | 91 | 1016.1 |
| 20260906053037 | 69 | 28 | 4.3 | 7.0 | 0.00 | 0.24 | 0.00 | 92 | 1015.9 |
| 20260906051532 | 70 | 16 | 4.3 | 7.8 | 0.00 | 0.24 | 0.00 | 92 | 1015.9 |
| 20260906050037 | 71 | 36 | 3.5 | 7.8 | 0.00 | 0.24 | 0.00 | 92 | 1015.5 |
| 20260906044533 | 71 | 14 | 5.2 | 8.7 | 0.00 | 0.24 | 0.00 | 93 | 1015.6 |
| 20260906043033 | 71 | 12 | 4.3 | 7.8 | 0.00 | 0.24 | 0.00 | 93 | 1015.4 |
| 20260906041540 | 71 | 5 | 5.2 | 9.6 | 0.00 | 0.24 | 0.00 | 93 | 1015.5 |
| 20260906040036 | 71 | 15 | 6.1 | 10.4 | 0.00 | 0.24 | 0.00 | 93 | 1015.3 |
| 20260906034536 | 72 | 9 | 5.2 | 9.6 | 0.00 | 0.24 | 0.24 | 93 | 1015.3 |
| 20260906033038 | 72 | 360 | 4.3 | 8.7 | 0.00 | 0.24 | 0.24 | 93 | 1015.2 |
| 20260906031533 | 72 | 42 | 4.3 | 8.7 | 0.00 | 0.24 | 0.24 | 93 | 1015.4 |
| 20260906030034 | 73 | 16 | 3.5 | 7.0 | 0.00 | 0.24 | 0.24 | 92 | 1015.4 |
| 20260906024540 | 73 | 26 | 2.6 | 6.1 | 0.00 | 0.24 | 0.24 | 92 | 1015.4 |
| 20260906023042 | 73 | 20 | 2.6 | 5.2 | 0.00 | 0.24 | 0.24 | 92 | 1015.5 |
| 20260906021543 | 74 | 42 | 3.5 | 8.7 | 0.00 | 0.24 | 0.24 | 92 | 1015.4 |
| 20260906020034 | 74 | 20 | 4.3 | 8.7 | 0.00 | 0.24 | 0.24 | 92 | 1015.3 |
| 20260906014546 | 74 | 28 | 3.5 | 6.1 | 0.00 | 0.24 | 0.24 | 92 | 1014.9 |
| 20260906013042 | 75 | 23 | 4.3 | 9.6 | 0.00 | 0.24 | 0.24 | 92 | 1014.7 |
| 20260906011535 | 75 | 35 | 4.3 | 10.4 | 0.00 | 0.24 | 0.24 | 93 | 1014.6 |
| 20260906010036 | 75 | 55 | 4.3 | 9.6 | 0.00 | 0.24 | 0.24 | 93 | 1014.4 |
| 20260906004535 | 75 | 49 | 1.7 | 4.3 | 0.00 | 0.24 | 0.24 | 94 | 1014.3 |
| 20260906003037 | 74 | 5 | 1.7 | 3.5 | 0.00 | 0.24 | 0.24 | 93 | 1013.8 |
| 20260906001535 | 75 | 5 | 1.7 | 3.5 | 0.00 | 0.24 | 0.24 | 91 | 1013.8 |
| 20260906000036 | 75 | 332 | 1.7 | 3.5 | 0.00 | 0.24 | 0.24 | 89 | 1013.8 |
| 20260905234539 | 76 | 325 | 1.7 | 3.5 | 0.00 | 0.24 | 0.24 | 88 | 1013.9 |
| 20260905233035 | 76 | 0 | 0.9 | 6.1 | 0.00 | 0.24 | 0.24 | 90 | 1014.1 |
| 20260905231534 | 76 | 342 | 1.7 | 5.2 | 0.12 | 0.24 | 0.24 | 91 | 1014.0 |
| 20260905230037 | 76 | 336 | 1.7 | 8.7 | 0.12 | 0.24 | 0.24 | 90 | 1013.8 |
| 20260905224535 | 76 | 5 | 3.5 | 7.0 | 0.12 | 0.24 | 0.24 | 89 | 1013.8 |
| 20260905223035 | 78 | 24 | 2.6 | 7.0 | 0.12 | 0.24 | 0.24 | 86 | 1013.5 |
| 20260905221533 | 82 | 351 | 9.6 | 13.9 | 0.00 | 0.12 | 0.12 | 80 | 1013.4 |
| 20260905220037 | 86 | 348 | 0.0 | 3.5 | 0.00 | 0.12 | 0.12 | 73 | 1012.9 |
| 20260905214536 | 88 | 0 | 0.0 | 0.0 | 0.00 | 0.12 | 0.12 | 70 | 1012.7 |
| 20260905213036 | 90 | 292 | 1.7 | 5.2 | 0.00 | 0.12 | 0.12 | 66 | 1012.7 |
| 20260905211538 | 89 | 329 | 0.9 | 6.1 | 0.00 | 0.12 | 0.12 | 68 | 1012.8 |
| 20260905210035 | 89 | 269 | 1.7 | 7.0 | 0.00 | 0.12 | 0.12 | 68 | 1013.2 |
| 20260905204533 | 89 | 247 | 1.7 | 7.0 | 0.00 | 0.12 | 0.12 | 69 | 1013.4 |
| 20260905203034 | 89 | 248 | 2.6 | 7.8 | 0.00 | 0.12 | 0.12 | 68 | 1013.7 |
| 20260905201536 | 89 | 280 | 3.5 | 8.7 | 0.00 | 0.12 | 0.12 | 66 | 1013.8 |
| 20260905200040 | 89 | 252 | 3.5 | 7.0 | 0.00 | 0.12 | 0.12 | 66 | 1013.9 |
| 20260905194540 | 88 | 209 | 0.9 | 7.8 | 0.00 | 0.12 | 0.12 | 70 | 1014.1 |
| 20260905193036 | 88 | 288 | 1.7 | 7.0 | 0.00 | 0.12 | 0.12 | 67 | 1014.3 |
| 20260905191540 | 87 | 227 | 2.6 | 7.0 | 0.00 | 0.12 | 0.12 | 69 | 1014.4 |
| 20260905190048 | 87 | 250 | 2.6 | 7.8 | 0.00 | 0.12 | 0.12 | 68 | 1014.7 |
| 20260905184542 | 86 | 238 | 2.6 | 7.8 | 0.00 | 0.12 | 0.12 | 68 | 1015.2 |
| 20260905183033 | 86 | 201 | 3.5 | 8.7 | 0.00 | 0.12 | 0.12 | 68 | 1015.2 |
| 20260905181536 | 86 | 165 | 2.6 | 8.7 | 0.00 | 0.12 | 0.12 | 70 | 1015.2 |
| 20260905180034 | 85 | 256 | 2.6 | 7.8 | 0.00 | 0.12 | 0.12 | 72 | 1015.3 |
| 20260905174540 | 85 | 250 | 1.7 | 8.7 | 0.00 | 0.12 | 0.12 | 73 | 1015.4 |
| 20260905173036 | 84 | 231 | 2.6 | 7.8 | 0.00 | 0.12 | 0.12 | 72 | 1015.3 |
| 20260905171546 | 84 | 231 | 2.6 | 7.0 | 0.00 | 0.12 | 0.12 | 71 | 1015.4 |
| 20260905170037 | 84 | 211 | 3.5 | 7.8 | 0.00 | 0.12 | 0.12 | 74 | 1015.4 |
| 20260905164534 | 82 | 284 | 3.5 | 8.7 | 0.00 | 0.12 | 0.12 | 77 | 1015.0 |
| 20260905163034 | 80 | 205 | 4.3 | 7.8 | 0.00 | 0.12 | 0.12 | 78 | 1015.6 |
| 20260905161537 | 80 | 270 | 1.7 | 8.7 | 0.00 | 0.12 | 0.12 | 78 | 1015.9 |
| 20260905160036 | 80 | 211 | 5.2 | 11.3 | 0.00 | 0.12 | 0.12 | 75 | 1015.8 |
| 20260905154536 | 80 | 197 | 0.9 | 6.1 | 0.00 | 0.12 | 0.12 | 76 | 1015.9 |
| 20260905153047 | 78 | 153 | 4.3 | 7.8 | 0.00 | 0.12 | 0.12 | 77 | 1015.9 |
| 20260905151538 | 78 | 175 | 3.5 | 9.6 | 0.00 | 0.12 | 0.12 | 79 | 1015.6 |
| 20260905150036 | 77 | 213 | 4.3 | 8.7 | 0.00 | 0.12 | 0.12 | 79 | 1015.6 |
| 20260905144534 | 76 | 175 | 5.2 | 10.4 | 0.00 | 0.12 | 0.12 | 79 | 1015.5 |
| 20260905143036 | 75 | 180 | 2.6 | 7.8 | 0.00 | 0.12 | 0.12 | 82 | 1015.7 |
| 20260905141549 | 74 | 183 | 5.2 | 9.6 | 0.00 | 0.12 | 0.12 | 83 | 1015.8 |
| 20260905140033 | 73 | 184 | 3.5 | 7.8 | 0.00 | 0.12 | 0.12 | 84 | 1016.0 |
| 20260905134536 | 72 | 128 | 1.7 | 6.1 | 0.00 | 0.12 | 0.12 | 87 | 1016.0 |
| 20260905133033 | 71 | 161 | 2.6 | 5.2 | 0.00 | 0.12 | 0.12 | 88 | 1016.3 |
| 20260905131536 | 70 | 78 | 2.6 | 7.8 | 0.00 | 0.12 | 0.12 | 90 | 1016.5 |
| 20260905130036 | 69 | 0 | 0.0 | 2.6 | 0.00 | 0.12 | 0.12 | 92 | 1016.9 |
| 20260905124536 | 68 | 0 | 0.0 | 1.7 | 0.00 | 0.12 | 0.12 | 91 | 1016.8 |
| 20260905123036 | 67 | 107 | 1.7 | 6.1 | 0.00 | 0.12 | 0.12 | 92 | 1016.4 |
| 20260905121534 | 67 | 72 | 1.7 | 5.2 | 0.00 | 0.12 | 0.12 | 92 | 1016.1 |
| 20260905120035 | 67 | 107 | 2.6 | 7.0 | 0.00 | 0.12 | 0.12 | 91 | 1015.9 |
| 20260905114532 | 67 | 98 | 3.5 | 9.6 | 0.00 | 0.12 | 0.12 | 91 | 1016.4 |
| 20260905113034 | 67 | 65 | 3.5 | 7.8 | 0.00 | 0.12 | 0.12 | 91 | 1016.6 |
| 20260905111541 | 67 | 36 | 4.3 | 13.0 | 0.00 | 0.12 | 0.12 | 90 | 1016.6 |
| 20260905110033 | 67 | 17 | 7.0 | 12.2 | 0.00 | 0.12 | 0.12 | 90 | 1017.0 |
| 20260905104538 | 67 | 24 | 4.3 | 11.3 | 0.04 | 0.12 | 0.12 | 90 | 1017.0 |
| 20260905103038 | 67 | 28 | 7.8 | 12.2 | 0.12 | 0.12 | 0.12 | 91 | 1017.1 |
| 20260905101536 | 67 | 28 | 6.1 | 15.6 | 0.12 | 0.12 | 0.12 | 90 | 1016.9 |
| 20260905100035 | 67 | 42 | 10.4 | 18.2 | 0.12 | 0.12 | 0.12 | 90 | 1017.1 |
| 20260905094536 | 69 | 350 | 11.3 | 23.5 | 0.08 | 0.08 | 0.08 | 88 | 1017.3 |
| 20260905093038 | 70 | 5 | 13.9 | 28.7 | 0.00 | 0.00 | 0.00 | 85 | 1016.9 |
| 20260905091538 | 72 | 5 | 16.5 | 24.3 | 0.00 | 0.00 | 0.00 | 92 | 1016.5 |
| 20260905090046 | 71 | 0 | 0.0 | 2.6 | 0.00 | 0.00 | 0.00 | 94 | 1015.4 |
| 20260905084539 | 71 | 90 | 0.0 | 0.9 | 0.00 | 0.00 | 0.00 | 93 | 1015.5 |
| 20260905083044 | 72 | 0 | 0.0 | 0.0 | 0.00 | 0.00 | 0.00 | 93 | 1015.2 |
| 20260905081538 | 72 | 90 | 0.9 | 1.7 | 0.00 | 0.00 | 0.00 | 93 | 1015.2 |